Home   Weather   Rancho Cucamonga   Past weeks

Flag for USA Past Weather in Rancho Cucamonga, California, USA — Yesterday and Last 2 Weeks

Now
57 °F

Partly sunny.


Feels Like: 57 °F
Forecast: 43 / 59 °F
Wind: 3 mph from North

Location: Ontario International Airport

Current Time: Jan 18, 2017 at 12:39:45 pm

Latest Report: Jan 18, 2017 at 11:53 am


Visibility: 10 mi

Pressure: 30.13 "Hg

Humidity: 58%

Dew Point: 42 °F

Location of Rancho CucamongaLocation

Past Weather in Rancho Cucamonga — Graph

°F

Rancho Cucamonga Temperature Yesterday

Maximum temperature yesterday: 64 °F (at 12:53 pm)
Minimum temperature yesterday: 41 °F (at 5:53 am)
Average temperature yesterday: 53 °F

High & Low Weather Summary for the Past Weeks

 TemperatureHumidityPressure
High74 °F (Jan 8, 1:53 pm)100% (Jan 5, 12:14 am)30.22 "Hg (Jan 5, 12:14 am)
Low40 °F (Jan 18, 5:53 am)16% (Jan 16, 10:53 pm)29.91 "Hg (Jan 5, 4:53 pm)
Average54 °F79%30.06 "Hg
* Reported Jan 3 10:53 am — Jan 18 10:53 am, Rancho Cucamonga, Weather by CustomWeather, © 2017

Note: Actual official high and low records may vary slightly from our data, if they occured in-between our weather recording intervals... More about our weather records

Advertising

Rancho Cucamonga Weather History for the Previous 24 Hours

Scroll right to see more
 ConditionsComfort  
Time TempWeatherWind HumidityBarometerVisibility
10:53 am
Wed, Jan 18
53 °FScattered clouds.No wind66%30.18 "Hg10 mi
9:53 am51 °FScattered clouds.3 mph66%30.20 "Hg10 mi
8:53 am50 °FPassing clouds.No wind57%30.20 "Hg10 mi
7:53 am45 °FPassing clouds.No wind71%30.19 "Hg10 mi
6:53 am42 °FPassing clouds.No wind71%30.17 "Hg10 mi
5:53 am40 °FPassing clouds.No wind70%30.15 "Hg10 mi
4:53 am42 °FPassing clouds.No wind65%30.15 "Hg10 mi
3:53 am43 °FPassing clouds.5 mph65%30.14 "Hg10 mi
2:53 am44 °FPassing clouds.3 mph71%30.15 "Hg10 mi
1:53 am44 °FPassing clouds.3 mph73%30.15 "Hg10 mi
12:53 am47 °FPassing clouds.No wind69%30.15 "Hg10 mi
11:53 pm
Tue, Jan 17
43 °FPassing clouds.No wind76%30.17 "Hg10 mi
10:53 pm48 °FPassing clouds.3 mph71%30.16 "Hg10 mi
9:53 pm50 °FPassing clouds.5 mph68%30.14 "Hg10 mi
8:53 pm50 °FPassing clouds.No wind66%30.13 "Hg10 mi
7:53 pm54 °FPassing clouds.5 mph57%30.12 "Hg10 mi
6:53 pm54 °FPassing clouds.6 mph51%30.12 "Hg10 mi
5:53 pm59 °FPassing clouds.3 mph36%30.10 "Hg10 mi
4:53 pm60 °FScattered clouds.3 mph36%30.09 "Hg10 mi
3:53 pm62 °FPassing clouds.6 mph39%30.07 "Hg10 mi
2:53 pm64 °FSunny.8 mph35%30.07 "Hg10 mi
1:53 pm64 °FPassing clouds.8 mph30%30.06 "Hg10 mi
12:53 pm64 °FPassing clouds.5 mph33%30.05 "Hg10 mi
Weather by CustomWeather, © 2017

See weather overviewHow to use our weather pages